Location: Houston
(29.7631°N, 95.3631°W)
Time: 20:03:28
(UTC-06:00)

Envisat - Pass Details

Date: 27 October 2019
Orbit: 764 x 766 km, 98.1° (Epoch: 17 November)

Event Time Altitude Azimuth Distance (km) Brightness Sun altitude
Rises 19:45:24 0° 174° (S) 3,216 6.2 -15.0°
Reaches altitude 10° 19:47:43 10° 177° (S) 2,293 5.5 -15.5°
Maximum altitude 19:52:44 65° 259° (W) 838 3.4 -16.6°
Drops below altitude 10° 19:57:46 10° 341° (NNW) 2,305 5.6 -17.7°
Sets 20:00:06 0° 344° (NNW) 3,234 6.4 -18.2°
